Weather in Xam Neua

Laos     20°24′47″N   104°02′59″E
temp.,
°C
wind,
m/s
gust,
m/s
humid.,
%
clouds,
%
prec.,
mm/h
press.,
hPa
HPBL,
m
22 april, thu
thu2201:00+20sse11700 0.0 101018
04:00+18ssw11790 0.0 101011
07:00+21sw01680 0.0 101185
10:00+30nw25360 0.0 10101884
13:00+34wnw23232 0.0 10063231
16:00+32wnw23248 0.0 10043050
19:00+23s11523 0.0 100711
22:00+20se23864 0.0 100974
23 april, fri
fri2301:00+19sse11865 0.0 100837
04:00+18sse11876 0.0 100824
07:00+21sse12775 0.0 1009146
10:00+31w25360 0.0 10082122
13:00+35wnw242320 0.0 10043374
16:00+34wnw24237 0.0 10023187
19:00+25sse114713 0.0 100512
22:00+21sse22792 0.0 100856
24 april, sat
sat2401:00+20sse11813 0.0 100725
04:00+19s11853 0.0 100721
07:00+23s12700 0.0 1009123
10:00+31w37363 0.0 10082290
13:00+32wsw353216 0.0 10052417
16:00+35sw242585 0.0 10022918
19:00+26sse255373 0.0 1006156
22:00+22sse238368 0.0 100983
25 april, sun
sun2501:00+21sse11853 0.1 100829
04:00+20s118452 0.0 100822
07:00+22s117480 0.0 101047
10:00+31wsw373911 0.0 10092067
13:00+32sw243542 0.1 10051631
16:00+28ese2551100 0.0 1004285
19:00+22se3782100 0.4 1008279
22:00+20se1393100 0.2 1011104
26 april, mon
mon2601:00+19sse1296100 0.2 100965
04:00+19se1295100 0.0 101057
07:00+20se1286100 0.0 1012171
10:00+29e1248100 0.0 10111091
13:00+33nnw1334100 0.0 10072500
16:00+23ese247677 0.9 1007201
19:00+21se1188100 1.3 100941
22:00+20se1295100 0.4 101276